Time,TemperatureF,DewpointF,PressureIn,WindDirection,WindDirectionDegrees,WindSpeedMPH,WindSpeedGustMPH,Humidity,HourlyPrecipIn,Conditions,Clouds,dailyrainin,SoftwareType,DateUTC
2013-03-22 00:09:00,42.1,36.0,30.10,NNE,20,6.0,-999.0,79,-99.99,,,0.00,weatherlink.com 1.10,2013-03-22 07:09:00,
2013-03-22 00:24:00,41.8,36.0,30.10,NE,36,5.0,-999.0,80,-99.99,,,0.00,weatherlink.com 1.10,2013-03-22 07:24:00,
2013-03-22 00:39:00,41.5,36.0,30.10,NNE,14,3.0,-999.0,80,-99.99,,,0.00,weatherlink.com 1.10,2013-03-22 07:39:00,
2013-03-22 00:54:00,41.3,36.0,30.10,ENE,74,2.0,-999.0,82,-99.99,,,0.00,weatherlink.com 1.10,2013-03-22 07:54:00,
2013-03-22 01:09:00,41.2,36.0,30.11,North,5,1.0,-999.0,82,-99.99,,,0.00,weatherlink.com 1.10,2013-03-22 08:09:00,
2013-03-22 01:24:00,41.4,36.0,30.11,NNE,33,6.0,-999.0,82,-99.99,,,0.00,weatherlink.com 1.10,2013-03-22 08:24:00,
2013-03-22 01:39:00,41.7,36.0,30.11,NNE,24,7.0,-999.0,81,-99.99,,,0.00,weatherlink.com 1.10,2013-03-22 08:39:00,
2013-03-22 01:54:00,42.2,36.0,30.11,NNE,30,10.0,-999.0,80,-99.99,,,0.00,weatherlink.com 1.10,2013-03-22 08:54:00,
2013-03-22 02:09:00,42.3,36.0,30.11,NNW,336,7.0,-999.0,79,-99.99,,,0.00,weatherlink.com 1.10,2013-03-22 09:09:00,
2013-03-22 02:24:00,42.2,36.0,30.11,NE,37,3.0,-999.0,78,-99.99,,,0.00,weatherlink.com 1.10,2013-03-22 09:24:00,
2013-03-22 02:39:00,42.2,36.0,30.11,North,360,4.0,-999.0,78,-99.99,,,0.00,weatherlink.com 1.10,2013-03-22 09:39:00,
2013-03-22 02:54:00,42.1,36.0,30.11,North,355,9.0,-999.0,78,-99.99,,,0.00,weatherlink.com 1.10,2013-03-22 09:54:00,
2013-03-22 03:09:00,42.2,35.0,30.11,NNW,331,9.0,-999.0,77,-99.99,,,0.00,weatherlink.com 1.10,2013-03-22 10:09:00,
2013-03-22 03:24:00,42.0,35.0,30.11,NW,325,18.0,-999.0,77,-99.99,,,0.00,weatherlink.com 1.10,2013-03-22 10:24:00,
2013-03-22 03:39:00,42.3,35.0,30.11,NNW,348,11.0,-999.0,76,-99.99,,,0.00,weatherlink.com 1.10,2013-03-22 10:39:00,
2013-03-22 03:54:00,42.1,35.0,30.10,North,355,4.0,-999.0,76,-99.99,,,0.00,weatherlink.com 1.10,2013-03-22 10:54:00,
2013-03-22 04:09:00,41.6,35.0,30.10,ENE,58,4.0,-999.0,76,-99.99,,,0.00,weatherlink.com 1.10,2013-03-22 11:09:00,
2013-03-22 04:24:00,41.3,34.0,30.10,North,9,2.0,-999.0,76,-99.99,,,0.00,weatherlink.com 1.10,2013-03-22 11:24:00,
2013-03-22 04:39:00,41.2,34.0,30.10,NNW,329,6.0,-999.0,76,-99.99,,,0.00,weatherlink.com 1.10,2013-03-22 11:39:00,
2013-03-22 04:54:00,40.7,34.0,30.10,NNE,16,2.0,-999.0,77,-99.99,,,0.00,weatherlink.com 1.10,2013-03-22 11:54:00,
2013-03-22 05:09:00,40.3,34.0,30.10,North,355,5.0,-999.0,77,-99.99,,,0.00,weatherlink.com 1.10,2013-03-22 12:09:00,
2013-03-22 05:24:00,40.0,33.0,30.10,North,5,5.0,-999.0,77,-99.99,,,0.00,weatherlink.com 1.10,2013-03-22 12:24:00,
2013-03-22 05:39:00,39.8,33.0,30.10,NNE,22,4.0,-999.0,77,-99.99,,,0.00,weatherlink.com 1.10,2013-03-22 12:39:00,
2013-03-22 05:54:00,39.5,33.0,30.10,NNE,16,5.0,-999.0,77,-99.99,,,0.00,weatherlink.com 1.10,2013-03-22 12:54:00,
2013-03-22 06:09:00,39.3,33.0,30.11,NNE,13,2.0,-999.0,77,-99.99,,,0.00,weatherlink.com 1.10,2013-03-22 13:09:00,
2013-03-22 06:24:00,38.9,32.0,30.10,NNE,33,2.0,-999.0,77,-99.99,,,0.00,weatherlink.com 1.10,2013-03-22 13:24:00,
2013-03-22 06:39:00,38.3,32.0,30.11,NE,37,4.0,-999.0,78,-99.99,,,0.00,weatherlink.com 1.10,2013-03-22 13:39:00,
2013-03-22 06:54:00,38.0,32.0,30.11,NE,46,4.0,-999.0,79,-99.99,,,0.00,weatherlink.com 1.10,2013-03-22 13:54:00,
2013-03-22 07:09:00,37.6,31.0,30.11,NNE,18,2.0,-999.0,78,-99.99,,,0.00,weatherlink.com 1.10,2013-03-22 14:09:00,
2013-03-22 07:24:00,37.5,31.0,30.11,NNE,22,4.0,-999.0,78,-99.99,,,0.00,weatherlink.com 1.10,2013-03-22 14:24:00,
2013-03-22 07:39:00,38.4,31.0,30.12,NNE,32,6.0,-999.0,76,-99.99,,,0.00,weatherlink.com 1.10,2013-03-22 14:39:00,
2013-03-22 07:54:00,39.4,32.0,30.12,NNW,346,6.0,-999.0,74,-99.99,,,0.00,weatherlink.com 1.10,2013-03-22 14:54:00,
2013-03-22 08:09:00,40.2,32.0,30.13,North,355,6.0,-999.0,72,-99.99,,,0.00,weatherlink.com 1.10,2013-03-22 15:09:00,
2013-03-22 08:24:00,41.5,32.0,30.13,NNW,341,12.0,-999.0,69,-99.99,,,0.00,weatherlink.com 1.10,2013-03-22 15:24:00,
2013-03-22 08:39:00,43.1,32.0,30.13,NNW,348,7.0,-999.0,65,-99.99,,,0.00,weatherlink.com 1.10,2013-03-22 15:39:00,
2013-03-22 08:54:00,44.7,32.0,30.13,NNW,327,7.0,-999.0,61,-99.99,,,0.00,weatherlink.com 1.10,2013-03-22 15:54:00,
2013-03-22 09:09:00,46.0,32.0,30.14,NNE,23,4.0,-999.0,58,-99.99,,,0.00,weatherlink.com 1.10,2013-03-22 16:09:00,
2013-03-22 09:24:00,47.0,33.0,30.14,NNE,28,5.0,-999.0,58,-99.99,,,0.00,weatherlink.com 1.10,2013-03-22 16:24:00,
2013-03-22 09:39:00,47.4,33.0,30.15,NW,311,12.0,-999.0,58,-99.99,,,0.00,weatherlink.com 1.10,2013-03-22 16:39:00,
2013-03-22 09:54:00,47.8,34.0,30.14,NW,307,12.0,-999.0,59,-99.99,,,0.00,weatherlink.com 1.10,2013-03-22 16:54:00,
2013-03-22 10:09:00,48.3,35.0,30.14,NNE,25,13.0,-999.0,60,-99.99,,,0.00,weatherlink.com 1.10,2013-03-22 17:09:00,
2013-03-22 10:24:00,48.7,36.0,30.14,NW,306,13.0,-999.0,61,-99.99,,,0.00,weatherlink.com 1.10,2013-03-22 17:24:00,
2013-03-22 10:39:00,48.8,37.0,30.15,NW,318,16.0,-999.0,64,-99.99,,,0.00,weatherlink.com 1.10,2013-03-22 17:39:00,
2013-03-22 10:54:00,49.0,37.0,30.15,NW,324,9.0,-999.0,63,-99.99,,,0.00,weatherlink.com 1.10,2013-03-22 17:54:00,
2013-03-22 11:09:00,49.5,37.0,30.14,NNW,338,15.0,-999.0,63,-99.99,,,0.00,weatherlink.com 1.10,2013-03-22 18:09:00,
2013-03-22 11:24:00,49.6,37.0,30.15,North,360,13.0,-999.0,63,-99.99,,,0.00,weatherlink.com 1.10,2013-03-22 18:24:00,
2013-03-22 11:39:00,50.1,38.0,30.14,North,351,17.0,-999.0,63,-99.99,,,0.00,weatherlink.com 1.10,2013-03-22 18:39:00,
2013-03-22 11:54:00,50.2,39.0,30.15,NNW,342,20.0,-999.0,65,-99.99,,,0.00,weatherlink.com 1.10,2013-03-22 18:54:00,
2013-03-22 12:09:00,50.3,39.0,30.16,NW,304,10.0,-999.0,65,-99.99,,,0.00,weatherlink.com 1.10,2013-03-22 19:09:00,
2013-03-22 12:24:00,50.5,40.0,30.15,NNW,332,13.0,-999.0,68,-99.99,,,0.00,weatherlink.com 1.10,2013-03-22 19:24:00,
2013-03-22 12:39:00,51.4,41.0,30.15,NW,306,14.0,-999.0,68,-99.99,,,0.00,weatherlink.com 1.10,2013-03-22 19:39:00,
2013-03-22 12:54:00,50.8,41.0,30.14,NNW,337,16.0,-999.0,69,-99.99,,,0.00,weatherlink.com 1.10,2013-03-22 19:54:00,
2013-03-22 13:09:00,51.4,42.0,30.13,NW,311,17.0,-999.0,69,-99.99,,,0.00,weatherlink.com 1.10,2013-03-22 20:09:00,
2013-03-22 13:24:00,51.3,41.0,30.13,NW,306,15.0,-999.0,68,-99.99,,,0.00,weatherlink.com 1.10,2013-03-22 20:24:00,
2013-03-22 13:40:00,51.1,41.0,30.13,NW,317,22.0,-999.0,69,-99.99,,,0.00,weatherlink.com 1.10,2013-03-22 20:40:00,
2013-03-22 13:55:00,51.6,42.0,30.13,NW,326,23.0,-999.0,69,-99.99,,,0.00,weatherlink.com 1.10,2013-03-22 20:55:00,
2013-03-22 14:10:00,52.0,42.0,30.13,WNW,294,18.0,-999.0,69,-99.99,,,0.00,weatherlink.com 1.10,2013-03-22 21:10:00,
2013-03-22 14:24:00,51.9,42.0,30.12,NW,315,17.0,-999.0,70,-99.99,,,0.00,weatherlink.com 1.10,2013-03-22 21:24:00,
2013-03-22 14:38:00,51.9,42.0,30.12,NNW,348,11.0,-999.0,69,-99.99,,,0.00,weatherlink.com 1.10,2013-03-22 21:38:00,
2013-03-22 14:54:00,51.5,42.0,30.12,NW,320,20.0,-999.0,70,-99.99,,,0.00,weatherlink.com 1.10,2013-03-22 21:54:00,
2013-03-22 15:08:00,51.5,42.0,30.12,NNW,342,14.0,-999.0,70,-99.99,,,0.00,weatherlink.com 1.10,2013-03-22 22:08:00,
2013-03-22 15:25:00,50.7,41.0,30.12,NW,310,31.0,-999.0,70,-99.99,,,0.00,weatherlink.com 1.10,2013-03-22 22:25:00,
2013-03-22 15:39:00,51.1,41.0,30.11,WNW,290,21.0,-999.0,69,-99.99,,,0.00,weatherlink.com 1.10,2013-03-22 22:39:00,
2013-03-22 15:54:00,51.3,41.0,30.10,NW,305,13.0,-999.0,69,-99.99,,,0.00,weatherlink.com 1.10,2013-03-22 22:54:00,
2013-03-22 16:08:00,51.5,42.0,30.11,NNW,346,27.0,-999.0,69,-99.99,,,0.00,weatherlink.com 1.10,2013-03-22 23:08:00,
2013-03-22 16:23:00,50.6,41.0,30.11,NNW,336,15.0,-999.0,70,-99.99,,,0.00,weatherlink.com 1.10,2013-03-22 23:23:00,
2013-03-22 16:39:00,51.1,42.0,30.11,NW,319,25.0,-999.0,72,-99.99,,,0.00,weatherlink.com 1.10,2013-03-22 23:39:00,
2013-03-22 16:55:00,50.3,42.0,30.11,NW,317,24.0,-999.0,73,-99.99,,,0.00,weatherlink.com 1.10,2013-03-22 23:55:00,
2013-03-22 17:09:00,50.4,41.0,30.10,NNW,346,8.0,-999.0,71,-99.99,,,0.00,weatherlink.com 1.10,2013-03-23 00:09:00,
2013-03-22 17:25:00,50.4,42.0,30.10,NW,321,27.0,-999.0,72,-99.99,,,0.00,weatherlink.com 1.10,2013-03-23 00:25:00,
2013-03-22 17:39:00,50.0,42.0,30.10,NNW,329,16.0,-999.0,73,-99.99,,,0.00,weatherlink.com 1.10,2013-03-23 00:39:00,
2013-03-22 17:54:00,49.7,41.0,30.10,NW,323,11.0,-999.0,72,-99.99,,,0.00,weatherlink.com 1.10,2013-03-23 00:54:00,
2013-03-22 18:09:00,49.2,41.0,30.08,NW,310,16.0,-999.0,73,-99.99,,,0.00,weatherlink.com 1.10,2013-03-23 01:09:00,
2013-03-22 18:24:00,48.7,41.0,30.09,North,350,12.0,-999.0,74,-99.99,,,0.00,weatherlink.com 1.10,2013-03-23 01:24:00,
2013-03-22 18:39:00,48.2,42.0,30.08,North,355,10.0,-999.0,79,-99.99,,,0.00,weatherlink.com 1.10,2013-03-23 01:39:00,
2013-03-22 18:54:00,47.9,41.0,30.08,North,9,6.0,-999.0,76,-99.99,,,0.00,weatherlink.com 1.10,2013-03-23 01:54:00,
2013-03-22 19:09:00,47.4,41.0,30.08,North,355,9.0,-999.0,77,-99.99,,,0.00,weatherlink.com 1.10,2013-03-23 02:09:00,
2013-03-22 19:24:00,46.9,40.0,30.09,NNW,333,14.0,-999.0,78,-99.99,,,0.00,weatherlink.com 1.10,2013-03-23 02:24:00,
2013-03-22 19:39:00,46.5,40.0,30.09,North,9,11.0,-999.0,79,-99.99,,,0.00,weatherlink.com 1.10,2013-03-23 02:39:00,
2013-03-22 19:54:00,46.1,40.0,30.10,NW,321,5.0,-999.0,78,-99.99,,,0.00,weatherlink.com 1.10,2013-03-23 02:54:00,
2013-03-22 20:09:00,45.1,39.0,30.10,NE,48,2.0,-999.0,78,-99.99,,,0.00,weatherlink.com 1.10,2013-03-23 03:09:00,
2013-03-22 20:24:00,43.8,38.0,30.10,NNE,24,2.0,-999.0,79,-99.99,,,0.00,weatherlink.com 1.10,2013-03-23 03:24:00,
2013-03-22 20:40:00,42.6,37.0,30.10,NE,44,5.0,-999.0,80,-99.99,,,0.00,weatherlink.com 1.10,2013-03-23 03:40:00,
2013-03-22 20:54:00,42.3,37.0,30.10,NNE,25,4.0,-999.0,81,-99.99,,,0.00,weatherlink.com 1.10,2013-03-23 03:54:00,
2013-03-22 21:10:00,42.8,37.0,30.10,NNE,32,6.0,-999.0,80,-99.99,,,0.00,weatherlink.com 1.10,2013-03-23 04:10:00,
2013-03-22 21:25:00,43.4,37.0,30.10,NNE,17,4.0,-999.0,78,-99.99,,,0.00,weatherlink.com 1.10,2013-03-23 04:25:00,
2013-03-22 21:39:00,43.6,37.0,30.11,North,360,4.0,-999.0,77,-99.99,,,0.00,weatherlink.com 1.10,2013-03-23 04:39:00,
2013-03-22 21:54:00,43.5,37.0,30.11,North,355,2.0,-999.0,78,-99.99,,,0.00,weatherlink.com 1.10,2013-03-23 04:54:00,
2013-03-22 22:10:00,43.2,37.0,30.11,NNE,24,2.0,-999.0,78,-99.99,,,0.00,weatherlink.com 1.10,2013-03-23 05:10:00,
2013-03-22 22:24:00,42.7,37.0,30.11,NE,38,3.0,-999.0,79,-99.99,,,0.00,weatherlink.com 1.10,2013-03-23 05:24:00,
2013-03-22 22:40:00,42.3,37.0,30.11,NE,39,5.0,-999.0,80,-99.99,,,0.00,weatherlink.com 1.10,2013-03-23 05:40:00,
2013-03-22 22:55:00,42.2,36.0,30.11,North,360,4.0,-999.0,80,-99.99,,,0.00,weatherlink.com 1.10,2013-03-23 05:55:00,
2013-03-22 23:10:00,42.2,36.0,30.11,NNE,16,8.0,-999.0,80,-99.99,,,0.00,weatherlink.com 1.10,2013-03-23 06:10:00,
2013-03-22 23:25:00,42.0,36.0,30.11,North,9,5.0,-999.0,80,-99.99,,,0.00,weatherlink.com 1.10,2013-03-23 06:25:00,
2013-03-22 23:40:00,41.6,36.0,30.11,NNE,33,3.0,-999.0,81,-99.99,,,0.00,weatherlink.com 1.10,2013-03-23 06:40:00,
2013-03-22 23:54:00,41.8,36.0,30.10,NNE,16,3.0,-999.0,80,-99.99,,,0.00,weatherlink.com 1.10,2013-03-23 06:54:00,